Weather in Magnetity

Russia / Murmansk Oblast     68°41′09″N   33°07′38″E
temp.,
°C
wind,
m/s
gust,
m/s
humid.,
%
clouds,
%
prec.,
mm/h
press.,
hPa
HPBL,
m
7 march, sun
sun700:00−12e1188100 0.0 99321
03:00−14ene1289100 0.0 99620
06:00−15e229199 0.0 100021
09:00−14e229299 0.0 100347
12:00−12e158797 0.0 1006306
15:00−11ene248597 0.0 1009280
18:00−16e118887 0.0 101120
21:00−19e119090 0.0 101320
8 march, mon
mon800:00−19se119292 0.0 101420
03:00−19sse019196 0.0 101520
06:00−19sse0191100 0.0 101620
09:00−17s1291100 0.0 101625
12:00−14ssw128987 0.0 1017147
15:00−13s139085 0.0 1017211
18:00−17ssw129572 0.0 101620
21:00−20sw129745 0.0 101620
9 march, tue
tue900:00−21wsw129630 0.0 101620
03:00−21ssw239432 0.0 101724
06:00−21ssw129597 0.0 101820
09:00−19sw119599 0.0 101824
12:00−16w1292100 0.0 1019223
15:00−14w239398 0.0 1020281
18:00−17w129793 0.0 102020
21:00−19wsw119890 0.0 102020
10 march, wed
wed1000:00−18wsw119897 0.1 102021
03:00−16wsw129799 0.1 102024
06:00−19wsw129873 0.0 102020
09:00−18sw129772 0.0 101925
12:00−13wsw259377 0.0 1019259
15:00−11wsw278950 0.0 1018335
18:00−14sw22930 0.0 101620
21:00−16ssw35910 0.0 101487
11 march, thu
thu1100:00−17ssw3109111 0.0 1012218
03:00−16sw4158327 0.0 1010491
06:00−16sw4167762 0.0 1007533
09:00−15sw5167949 0.0 1005596
12:00−11sw7157427 0.0 1003696
15:00−9sw7167119 0.0 1000788
18:00−11sw6167081 0.0 998724
21:00−13ssw5167652 0.0 996530